Location: B
(0.0000°N, 0.0000°E)
Time: 02:54:54
(UTC+01:00)

ISS - All Passes

Search period start: 19 February 2018 00:00
Search period end: 01 March 2018 00:00
Orbit: 403 x 407 km, 51.6° (Epoch: 19 February)

Date Brightness Start Highest point End Pass type
(mag) Time Alt. Az. Time Alt. Az. Time Alt. Az.
19 Feb - 07:28:44 10° SW 07:32:01 82° NW 07:35:16 10° NNE daylight
19 Feb - 19:02:41 10° NNW 19:05:52 55° NE 19:09:04 10° SE daylight
20 Feb - 06:36:54 10° S 06:39:52 31° SE 06:42:49 10° ENE visible
20 Feb - 18:11:17 10° N 18:13:43 19° NE 18:16:10 10° ESE daylight
20 Feb - 19:48:37 10° W 19:50:01 12° SW 19:51:23 10° SSW visible
21 Feb - 05:46:11 10° SSE 05:47:41 13° SE 05:49:10 10° E visible
21 Feb - 07:21:33 10° WSW 07:23:57 19° NW 07:26:22 10° N daylight
21 Feb - 18:54:53 10° WNW 18:57:49 31° SW 19:00:45 10° S daylight
22 Feb - 06:28:35 10° SW 06:31:47 53° NW 06:34:59 10° NNE visible
22 Feb - 18:02:24 10° NW 18:05:38 84° NE 18:08:53 10° SE daylight
23 Feb - 05:36:27 10° SSW 05:39:37 46° SE 05:42:46 10° NE visible
23 Feb - 17:10:38 10° N 17:13:27 27° NE 17:16:17 10° ESE daylight
24 Feb - 04:45:08 10° S 04:47:24 17° SE 04:49:39 10° E visible
24 Feb - 06:21:54 10° W 06:23:40 14° NW 06:25:27 10° NNW visible
24 Feb - 16:20:24 10° NE 16:21:14 11° NE 16:22:04 10° ENE daylight
24 Feb - 17:54:55 10° WNW 17:57:31 22° SW 18:00:06 10° S daylight
25 Feb - 05:28:25 10° WSW 05:31:27 35° NW 05:34:29 10° NNE visible
25 Feb - 17:02:04 10° NW 17:05:17 64° SW 17:08:31 10° SSE daylight
26 Feb - 04:35:59 10° SSW 04:39:15 71° SE 04:42:29 10° NE night (unlit)
26 Feb - 16:10:01 10° NNW 16:13:04 39° NE 16:16:09 10° SE daylight
27 Feb - 03:44:17 10° S 03:47:00 24° SE 03:49:42 10° ENE night (unlit)
27 Feb - 15:18:53 10° NNE 15:20:49 15° NE 15:22:47 10° E daylight
27 Feb - 16:55:01 10° W 16:57:05 16° SW 16:59:10 10° SSW daylight
28 Feb - 04:28:15 10° WSW 04:31:00 25° NW 04:33:46 10° N night (unlit)
28 Feb - 16:01:44 10° NW 16:04:50 42° SW 16:07:56 10° SSE daylight
